STARLINK-1363, 45568

Orbit data source: Space-Track

STARLINK-1363, 45568 is a payload satellite owned by SpaceX/Seattle (US) in LEO that was launched on Wed, 22 Apr 2020 UTC via an FALCON 9 launch vehicle from the Air Force Eastern Test Range (AFETR). Payload-class satellites include a variety of spacecraft equipped with specific instruments for various scientific and technological missions. These include communications satellites like Starlink; space stations such as the ISS; scientific satellites like the Hubble; Earth observation satellites from companies like Planet Labs, Umbra, and HawkEye 360; GPS; miniature CubeSats for education and research; and military/defense satellites.

Loading next visibility...
Identifier
45568, 2020-025AP
Orbit
LEO
Country
Flag of USUS
Related business
Manufacturer
SpaceX/Seattle
Mission
Partially operational Commercial Communications
Bus & Motor
STARLINK, Unknown motor
Mass
260 kg wet, ~248 kg dry
Launch date (UTC)
2020-04-22 (6 years ago)
Launch vehicle
FALCON 9
Launch site
Air Force Eastern Test Range (AFETR)
Object type
Payload
Rocket body
Debris
Shape & HBR
Box + 1 Pan, 10.1 m
Radar Cross Section
13.562 m², Large (>1 m²)

Expand to show TLE details & history
Last TLE update: 3 hours ago

TLE from 3 hours ago
0 STARLINK-1363
1 45568U 20025AP  25299.25001156  .01031322  00000-0  28114-1 0  9993
2 45568  53.0611 328.9669 0001239  81.2144  81.7848 15.34324363  5694
Epoch: 2025-10-26T06:00Z
TLE epoch observation values (Epoch: 2025-10-26T06:00:00.998Z)
Latitude
13.50813°
Longitude
13.746°
Altitude
462.946 km
Speed
7.637 km/s
True Right ascension
09h 14m 28s
True Declination
13° 25' 37"
Sunlit
Object was in daylight at epoch
Visualization orbit readout
Latitude
Unknown
Longitude
Unknown
Altitude
Unknown
Speed
Unknown
Apparent Right ascension
Unknown
Apparent Declination
Unknown
Sunlit
N/A
Visualization observer readout
Local Sidereal Time
04:09:59
Azimuth
Unknown
Elevation
Unknown
Doppler factor
Unknown
Orbital elements
Apogee altitude
464.049 km
Perigee altitude
462.353 km
Semi-major axis
6,841.338 km
Eccentricity
0.00012
Inclination
53.0611°
RAAN
328.9669°
Arg. of periapsis
81.2144°
True anomaly
81.79885°
Mean anomaly
81.7848°
Eccentric anomaly
81.79183°
Mean motion
3.83558 °/min
Orbital period
93.86 mins
BSTAR
0.028114
Loading maneuver chart data...
Computing Atmospheric mass density...

Documentation

Showing up to 5 results
|